Regional Weather Roundup
Issued by NWS

Home | Current Version | Previous Version | Text Only | Print | Product List | Glossary On
Versions: 1 2 3 4 5 6 7 8 9 10 11 12 13 14 15 16 17 18 19 20 21 22 23 24 25 26 27 28 29 30 31 32 33 34 35 36 37 38 39 40 41 42 43 44 45 46 47 48 49 50
000
ASUS43 KDMX 251406
RWRIA

WEATHER ROUNDUP FOR IOWA
NATIONAL WEATHER SERVICE DES MOINES IA
800 AM CST SUN FEB 25 2018

NOTE: "FAIR" INDICATES FEW OR NO CLOUDS BELOW 12,000 FEET WITH NO
SIGNIFICANT WEATHER AND/OR OBSTRUCTIONS TO VISIBILITY.

* - THESE STATIONS ARE NOT NWS STATIONS...THUS NOT UNDER NWS
QUALITY CONTROL.  THEY ALSO DO NOT REPORT WEATHER SUCH
AS PRECIPITATION OR FOG.

IAZ001>003-012>014-020>022-031>034-043>046-251500-
   NORTHWEST IOWA

CITY           SKY/WX    TMP DP  RH WIND       PRES   REMARKS
CARROLL *      CLEAR     21  16  79 SW13      29.85R WCI   9
CHEROKEE *     PTCLDY    18  11  75 W8        29.83R WCI   7
DENISON *      CLEAR     19  14  79 SW8       29.88R WCI   9
LE MARS *      CLEAR     21  12  68 S8        29.84R WCI  12
ORANGE CITY *  CLEAR     16  12  86 W10       29.81R WCI   3
SHELDON *      CLEAR     16  10  79 W15       29.77R WCI   1
SIOUX CITY     CLEAR     21  11  65 W8        29.87R WCI  11
SPENCER        CLEAR     19  10  68 W16       29.78R WCI   4
STORM LAKE *   CLEAR     21  12  68 W21       29.79R WCI   6
$$

IAZ055>058-069>071-079>083-090>094-251500-
   SOUTHWEST IOWA

CITY           SKY/WX    TMP DP  RH WIND       PRES   REMARKS
ATLANTIC *     CLEAR     25  21  86 SW15      29.91R WCI  12
AUDUBON *      CLEAR     23  18  80 SW7       29.89R WCI  15
CLARINDA *     SUNNY     27  23  86 W7        29.97R WCI  19
COUNCIL BLFS * CLEAR     23  21  93 SW10      29.93R WCI  12
CRESTON *      SUNNY     25  21  86 W10       29.92F WCI  15
LAMONI         SUNNY     27  19  72 SW12      29.94R WCI  17
RED OAK *      CLEAR     27  21  80 W8        29.94R WCI  18
SHENANDOAH *   CLEAR     25  21  86 SW7       29.96R WCI  17
$$

IAZ047>049-059>061-072>074-084-251500-
   CENTRAL IOWA

CITY           SKY/WX    TMP DP  RH WIND       PRES   REMARKS
AMES           SUNNY     22  17  81 SW16      29.87R WCI   8
ANKENY *       SUNNY     27  19  74 SW12      29.91S WCI  16
BOONE *        SUNNY     21  18  86 SW12      29.85R WCI   9
CHARITON *     SUNNY     27  21  80 SW10G18   29.92S WCI  17
DES MOINES     SUNNY     26  18  71 SW12      29.90R WCI  16
GRINNELL*      SUNNY     25  20  81 SW13      29.90R WCI  14
KNOXVILLE *    SUNNY     28  19  69 SW8       29.91R WCI  20
MARSHALLTOWN   SUNNY     24  18  77 SW16      29.86R WCI  11
NEWTON *       SUNNY     27  19  74 SW8       29.90R WCI  18
PELLA *        SUNNY     28  19  70 W10G16    29.93R WCI  19
PERRY *        FAIR      23  19  85 SW12      29.87S WCI  12
$$

IAZ004>006-015-016-023>025-035-036-251500-
   NORTH CENTRAL IOWA

CITY           SKY/WX    TMP DP  RH WIND       PRES   REMARKS
ALGONA *       CLEAR     16 N/A N/A SW16G23   29.78R WCI   0
CLARION *      SUNNY     14  14 100 SW12      29.82R WCI   0
ESTHERVILLE    CLEAR     17  10  74 W22G29    29.73R WCI   0
FORT DODGE *   SUNNY     17  11  77 SW12      29.84R WCI   4
MASON CITY     SUNNY     17  11  77 W20       29.77R WCI   1
FOREST CITY *  FAIR      14  10  85 SW5       29.77R WCI   6
WEBSTER CITY * SUNNY     19  14  79 SW17      29.81R WCI   4
IOWA FALLS *   FAIR      23  17  77 SW18      29.84R WCI   9
$$

IAZ007>011-017>019-026>030-037>042-050>054-066-251500-
   NORTHEAST IOWA

CITY           SKY/WX    TMP DP  RH WIND       PRES   REMARKS
CEDAR RAPIDS   FAIR      28  21  75 W16       29.86R WCI  16
CHARLES CITY *   N/A     18  16  93 SW14      29.78R WCI   4
CLINTON *      FAIR      29  23  78 W26       29.87R WCI  14
DECORAH *      FAIR      19  16  86 VRB7G20   29.75R WCI  10
DUBUQUE        FAIR      22  19  89 W20G31    29.81R WCI   7
MONTICELLO *   FAIR      27  19  74 W14G20    29.86R WCI  15
OELWEIN *      FAIR      21  21 100 SW9G15    29.82R WCI  11
WATERLOO       FAIR      22  16  78 SW16      29.83R WCI   8
$$

IAZ064-065-067-068-078-251500-
   EAST CENTRAL IOWA

CITY           SKY/WX    TMP DP  RH WIND       PRES   REMARKS
DAVENPORT      FAIR      31  23  72 W12       29.90R WCI  22
IOWA CITY      FAIR      30  21  69 W15       29.91R WCI  19
MT. PLEASANT * SUNNY     30  21  69 W12       29.94R WCI  21
MUSCATINE *    FAIR      32  21  64 W18       29.93R WCI  20
QUAD CITIES    FAIR      32  26  78 W16       29.88R WCI  21
$$

IAZ062-063-075>077-085>089-095>099-251500-
   SOUTHEAST IOWA

CITY           SKY/WX    TMP DP  RH WIND       PRES   REMARKS
BURLINGTON     SUNNY     31  22  69 W9        29.94R WCI  23
FAIRFIELD *    MOSUNNY   30  19  64 W12       29.93R WCI  21
FORT MADISON * SUNNY     30  25  80 W7        29.95R WCI  23
KEOKUK *       SUNNY     32  25  74 W10       29.95R WCI  24
OSKALOOSA *    FAIR      28  21  73 W14       29.92S WCI  17
OTTUMWA        SUNNY     29  20  69 W12       29.93R WCI  19
WASHINGTON *   SUNNY     30  23  74 W13       29.94R WCI  20
$$

ABBREVIATIONS USED IN REMARKS
   TC - TEMPERATURES IN CELSIUS
  WCI - WIND CHILL INDEX
   HX - HEAT INDEX
  VSB - VISIBILITY
$$




USA.gov is the U.S. government's official web portal to all federal, state and local government web resources and services.